Location: Winnipeg
(49.8830°N, 97.1670°W)
Time: 20:14:06
(UTC-06:00)

Envisat - Pass Details

Date: 05 December 2022
Orbit: 763 x 765 km, 98.2° (Epoch: 28 January)

Event Time Altitude Azimuth Distance (km) Brightness Sun altitude
Rises 07:04:11 0° 359° (N) 3,246 6.0 -10.1°
Reaches altitude 10° 07:09:04 10° 317° (NW) 2,313 4.9 -9.4°
Enters shadow 07:09:24 10° 313° (NW) 2,303 4.9 -9.3°
